Regional Weather Roundup
Issued by NWS

Home | Current Version | Previous Version | Text Only | Print | Product List | Glossary Off
Versions: 1 2 3 4 5 6 7 8 9 10 11 12 13 14 15 16 17 18 19 20 21 22 23 24 25 26 27 28 29 30 31 32 33 34 35 36 37 38 39 40 41 42 43 44 45 46 47 48 49 50

000
ASUS43 KFSD 192302
RWRSD

WEATHER ROUNDUP FOR SOUTH DAKOTA
NATIONAL WEATHER SERVICE SIOUX FALLS SD
500 PM CST FRI DEC 19 2014

NOTE: "FAIR" INDICATES FEW OR NO CLOUDS BELOW 12,000 FEET WITH NO
SIGNIFICANT WEATHER AND/OR OBSTRUCTIONS TO VISIBILITY.


SDZ001>005-009-010-012>017-200000-
NORTHWEST AND NORTH CENTRAL SOUTH DAKOTA

CITY           SKY/WX    TMP DP  RH WIND       PRES   REMARKS
BUFFALO          N/A     42  23  46 CALM      29.84S
FAITH            N/A     35  29  78 S7        29.93R WCI  29
MOBRIDGE       CLEAR     31  26  82 SE8       29.92S WCI  23
$$

SDZ012>016-024>037-041>051-057-063-072>074-200000-
SOUTHWEST AND SOUTH CENTRAL SOUTH DAKOTA

CITY           SKY/WX    TMP DP  RH WIND       PRES   REMARKS
RAPID CTY ARPT PTCLDY    40  25  55 SE5       29.93F
PIERRE         MOCLDY    27  24  89 SE3       29.97S
CUSTER         CLEAR     35  13  40 W3        29.91F
ELLSWORTH AFB  PTCLDY    38  24  55 SE5       29.92F
PHILIP         MOCLDY    41  24  51 CALM      29.96R
PINE RIDGE     CLEAR     37  23  56 SW6       29.97R
WINNER         FAIR      34  25  69 CALM      29.98S
$$

SDZ004>011-016>023-039-040-200000-
NORTHEAST SOUTH DAKOTA

CITY           SKY/WX    TMP DP  RH WIND       PRES   REMARKS
ABERDEEN       CLOUDY    30  27  88 S13       30.02R FOG     WCI  20
WATERTOWN      CLOUDY    28  27  96 S14       30.02R FOG     WCI  17
SISSETON         N/A     31  29  92 S9        30.03  WCI  23
$$

SDZ017-020-022-023-036>040-048>070-200000-
SOUTHEAST SOUTH DAKOTA

CITY           SKY/WX    TMP DP  RH WIND       PRES   REMARKS
SIOUX FALLS    CLOUDY    31  28  89 S13       30.09S WCI  21
HURON          CLOUDY    30  28  92 S12       30.04R FOG     WCI  20
MITCHELL       CLOUDY    31  29  92 S10       30.06R FOG     WCI  22
YANKTON        CLOUDY    34  28  80 S10       30.09F WCI  26
$$

ABBREVIATIONS USED IN REMARKS
   TC - TEMPERATURE IN CELSIUS
  WCI - WIND CHILL INDEX
   HX - HEAT INDEX
  VSB - VISIBILITY



USA.gov is the U.S. government's official web portal to all federal, state and local government web resources and services.